Weather History for Conroe, TX

Change the Weather History Date:

Saturday, January 4, 2014

  Actual Average Record
Temperature  
Mean Temperature 48 °F -  
Max Temperature 66 °F 60 °F 78 °F (1997)
Min Temperature 30 °F 39 °F 19 °F (2002)
Degree Days  
Heating Degree Days 17    
Moisture  
Dew Point 46 °F    
Average Humidity 79    
Maximum Humidity 100    
Minimum Humidity 59    
Precipitation  
Precipitation 0.00 in - - ()
Sea Level Pressure  
Sea Level Pressure 30.01 in    
Wind  
Wind Speed 6 mph (SSE)    
Max Wind Speed 16 mph    
Max Gust Speed 24 mph    
Visibility 10 miles    
Events      
Averages and records for this station are not official NWS values.
T = Trace of Precipitation, MM = Missing Value Source: NWS Daily Summary

Daily Weather History Graph

Daily Weather History Graph

Search for Another Location

Airport:

Trip Planner

Search our weather history database for the weather conditions in past years. The results will help you decide how hot, cold, wet, or windy it might be!

Date:

Astronomy

Jan. 04, 2014 Rise Set
Actual Time 7:19 AM CST 5:34 PM CST
Civil Twilight 6:52 AM CST 6:00 PM CST
Nautical Twilight 6:22 AM CST 6:30 PM CST
Astronomical Twilight 5:53 AM CST 6:59 PM CST
Moon 9:42 AM CST (1/4) 9:36 PM CST (1/4)
Length of Visible Light 11h 08m
Length of Day
10h 15m
Waxing Crescent, 15% of the Moon is Illuminated
Jan 4
Waxing Crescent
Jan 7
First Quarter
Jan 15
Full
Jan 23
Last Quarter
Jan 30
New

Hourly Weather History & Observations

Time (CST) Temp. Windchill Dew Point Humidity Pressure Visibility Wind Dir Wind Speed Gust Speed Precip Events Conditions
12:53 AM 35.1 °F 32.2 °F 32.0 °F 89% 30.17 in 10.0 mi SE 3.5 mph - N/A   Clear
1:53 AM 30.9 °F - 30.0 °F 96% 30.15 in 10.0 mi Calm Calm - N/A   Clear
2:53 AM 34.0 °F 31.0 °F 33.1 °F 96% 30.14 in 10.0 mi SE 3.5 mph - N/A   Clear
3:53 AM 33.1 °F - 32.0 °F 96% 30.13 in 10.0 mi Calm Calm - N/A   Clear
4:53 AM 37.0 °F 33.3 °F 35.1 °F 93% 30.12 in 10.0 mi SE 4.6 mph - N/A   Clear
5:53 AM 34.0 °F - 34.0 °F 100% 30.11 in 10.0 mi Calm Calm - N/A   Clear
6:53 AM 34.0 °F - 34.0 °F 100% 30.10 in 10.0 mi Calm Calm - N/A   Scattered Clouds
7:53 AM 36.0 °F - 35.1 °F 97% 30.11 in 10.0 mi Calm Calm - N/A   Mostly Cloudy
8:53 AM 44.1 °F 42.5 °F 42.1 °F 93% 30.10 in 10.0 mi SE 3.5 mph - N/A   Overcast
9:53 AM 55.9 °F - 46.9 °F 72% 30.09 in 10.0 mi SSE 13.8 mph - N/A   Mostly Cloudy
10:53 AM 60.1 °F - 48.0 °F 64% 30.07 in 10.0 mi South 12.7 mph 24.2 mph N/A   Overcast
11:53 AM 64.0 °F - 50.0 °F 60% 30.04 in 10.0 mi SSE 13.8 mph - N/A   Mostly Cloudy
12:53 PM 64.9 °F - 51.1 °F 61% 29.99 in 10.0 mi South 16.1 mph 23.0 mph N/A   Overcast
1:53 PM 66.0 °F - 51.1 °F 59% 29.96 in 10.0 mi South 10.4 mph 23.0 mph N/A   Overcast
2:53 PM 64.9 °F - 52.0 °F 63% 29.94 in 10.0 mi SSE 11.5 mph - N/A   Overcast
3:53 PM 64.9 °F - 52.0 °F 63% 29.92 in 10.0 mi SSE 16.1 mph - N/A   Overcast
4:53 PM 63.0 °F - 52.0 °F 67% 29.90 in 10.0 mi SSE 15.0 mph - N/A   Overcast
5:53 PM 62.1 °F - 53.1 °F 72% 29.90 in 10.0 mi SSE 11.5 mph - N/A   Overcast
6:53 PM 62.1 °F - 53.1 °F 72% 29.91 in 10.0 mi SSE 12.7 mph - N/A   Overcast
7:53 PM 62.1 °F - 54.0 °F 75% 29.91 in 10.0 mi SSE 16.1 mph 20.7 mph N/A   Overcast
8:53 PM 62.1 °F - 54.0 °F 75% 29.90 in 10.0 mi SSE 12.7 mph - N/A   Overcast
9:53 PM 62.1 °F - 55.0 °F 78% 29.90 in 10.0 mi SSE 10.4 mph - N/A   Overcast
10:53 PM 62.1 °F - 55.9 °F 80% 29.89 in 10.0 mi SSE 11.5 mph - N/A   Overcast
11:09 PM 62.6 °F - 55.4 °F 77% 29.89 in 10.0 mi SSE 12.7 mph - N/A   Overcast
11:53 PM 62.1 °F - 57.0 °F 84% 29.88 in 10.0 mi SSE 9.2 mph - N/A   Overcast